Tracking 19846 objects as of 19-Sep-2019
HD Live streaming from Space Station
objects crossing your sky now

PEARL WHITE 2

Track PEARL WHITE 2 now!
10-day predictions


NORAD ID: 44498
Int'l Code: 2019-054D
Perigee: 541.0 km
Apogee: 555.5 km
Inclination: 45.0 °
Period: 95.5 minutes
Semi major axis: 6919 km
RCS: Unknown
Launch date: August 19, 2019
Source: United States (US)
Launch site: Rocket Lab Launch Complex (RLLC)
aabbcc
Your satellite tracking list
Your tracking list is empty




NASA's NSSDC Master Catalog

Two Line Element Set (TLE):
1 44498U 19054D   19262.34169912  .00000225  00000-0  29954-4 0  9995
2 44498  45.0148 292.0044 0010456  76.1363 353.4686 15.08387891  4656
Source of the keplerian elements: AFSPC